Rochester, NY

11:48 AM EDT on July 23, 2017 (GMT -0400)
Greater Rochester International

Weather History for KROC - April, 2014

Change the Weather History Date:

Sunday, April 13, 2014

  Actual Average Record
Temperature  
Mean Temperature 65 °F 45 °F  
Max Temperature 82 °F 55 °F 86 °F (1945)
Min Temperature 47 °F 36 °F 20 °F (1874)
Degree Days  
Heating Degree Days 0 20  
Month to date heating degree days 267 289  
Since 1 July heating degree days 6500 6027  
Cooling Degree Days 0 0  
Month to date cooling degree days 0 0  
Year to date cooling degree days 0 0  
Growing Degree Days 14 (Base 50)    
Moisture  
Dew Point 47 °F    
Average Humidity 57    
Maximum Humidity 82    
Minimum Humidity 31    
Precipitation  
Precipitation 0.05 in 0.10 in 0.94 in (1996)
Month to date precipitation 1.45 1.24  
Year to date precipitation 7.43 8.10  
Snow  
Snow 0.00 in 0.20 in 4.00 in (1932)
Month to date snowfall 0.1 2.6  
Since 1 July snowfall 112.5 97.8  
Snow Depth 0.00 in    
Sea Level Pressure  
Sea Level Pressure 29.88 in    
Wind  
Wind Speed 9 mph (SW)    
Max Wind Speed 23 mph    
Max Gust Speed 28 mph    
Visibility 10 miles    
Events Rain    
T = Trace of Precipitation, MM = Missing Value Source: NWS Daily Summary

Daily Weather History Graph

Daily Weather History Graph

Search for Another Location

Airport or City:

Trip Planner

Search our weather history database for the weather conditions in past years. The results will help you decide how hot, cold, wet, or windy it might be!

Date:

Astronomy

Apr. 13, 2014 Rise Set
Actual Time 6:32 AM EDT 7:51 PM EDT
Civil Twilight 6:02 AM EDT 8:20 PM EDT
Nautical Twilight 5:27 AM EDT 8:56 PM EDT
Astronomical Twilight 4:49 AM EDT 9:33 PM EDT
Moon 6:25 PM EDT (4/13) 5:32 AM EDT (4/13)
Length of Visible Light 14h 17m
Length of Day
13h 19m
Waxing Gibbous, 97% of the Moon is Illuminated
Apr 13
Waxing Gibbous
Apr 15
Full
Apr 22
Last Quarter
Apr 29
New
May 6
First Quarter

Hourly Weather History & Observations

Time (EDT) Temp. Dew Point Humidity Pressure Visibility Wind Dir Wind Speed Gust Speed Precip Events Conditions
12:54 AM 54.0 °F 33.1 °F 45% 30.01 in 10.0 mi SW 5.8 mph - N/A   Overcast
1:39 AM 53.6 °F 35.6 °F 51% 30.03 in 10.0 mi North 6.9 mph - 0.00 in Rain Light Rain
1:54 AM 52.0 °F 37.0 °F 57% 30.03 in 10.0 mi NE 8.1 mph - 0.00 in Rain Light Rain
2:54 AM 48.0 °F 41.0 °F 77% 29.96 in 10.0 mi ENE 8.1 mph - 0.05 in Rain Light Rain
2:58 AM 48.2 °F 42.8 °F 82% 29.94 in 10.0 mi ENE 8.1 mph - N/A   Overcast
3:54 AM 48.0 °F 41.0 °F 77% 29.94 in 10.0 mi ENE 6.9 mph - N/A   Mostly Cloudy
4:54 AM 48.0 °F 41.0 °F 77% 29.93 in 10.0 mi ENE 5.8 mph - N/A   Mostly Cloudy
5:54 AM 46.9 °F 41.0 °F 80% 29.91 in 10.0 mi Calm Calm - N/A   Overcast
6:54 AM 48.0 °F 41.0 °F 77% 29.91 in 10.0 mi SSE 3.5 mph - N/A   Overcast
7:54 AM 50.0 °F 43.0 °F 77% 29.91 in 10.0 mi SW 4.6 mph - N/A   Partly Cloudy
8:54 AM 63.0 °F 46.0 °F 54% 29.89 in 10.0 mi SSW 11.5 mph 19.6 mph N/A   Mostly Cloudy
9:54 AM 66.9 °F 48.0 °F 51% 29.89 in 10.0 mi SSW 16.1 mph 25.3 mph N/A   Overcast
10:54 AM 71.1 °F 48.9 °F 45% 29.89 in 10.0 mi SSW 12.7 mph 23.0 mph N/A   Overcast
11:54 AM 73.0 °F 50.0 °F 44% 29.87 in 10.0 mi SSW 10.4 mph - N/A   Mostly Cloudy
12:54 PM 77.0 °F 51.1 °F 40% 29.83 in 10.0 mi SW 12.7 mph 20.7 mph N/A   Overcast
1:54 PM 80.1 °F 52.0 °F 38% 29.81 in 10.0 mi WSW 17.3 mph 24.2 mph N/A   Mostly Cloudy
2:54 PM 81.0 °F 48.9 °F 33% 29.78 in 10.0 mi SW 15.0 mph - N/A   Mostly Cloudy
3:54 PM 82.0 °F 48.9 °F 31% 29.79 in 10.0 mi West 15.0 mph 23.0 mph N/A   Overcast
4:54 PM 80.1 °F 52.0 °F 38% 29.78 in 10.0 mi West 15.0 mph 20.7 mph N/A   Mostly Cloudy
5:54 PM 78.1 °F 53.1 °F 42% 29.79 in 10.0 mi West 13.8 mph 21.9 mph N/A   Mostly Cloudy
6:54 PM 75.0 °F 53.1 °F 46% 29.81 in 10.0 mi West 15.0 mph 21.9 mph N/A   Mostly Cloudy
7:54 PM 71.1 °F 54.0 °F 55% 29.81 in 10.0 mi West 6.9 mph - N/A   Mostly Cloudy
8:54 PM 69.1 °F 53.1 °F 57% 29.82 in 10.0 mi SSW 5.8 mph - N/A   Mostly Cloudy
9:54 PM 66.9 °F 53.1 °F 61% 29.82 in 10.0 mi Variable 3.5 mph - N/A   Mostly Cloudy
10:54 PM 64.9 °F 53.1 °F 65% 29.81 in 10.0 mi Calm Calm - N/A   Scattered Clouds
11:54 PM 63.0 °F 53.1 °F 70% 29.80 in 10.0 mi Calm Calm - N/A   Scattered Clouds